Regional Weather Roundup
Issued by NWS

Home | Current Version | Previous Version | Graphics & Text | Print | Product List | Glossary On
Versions: 1 2 3 4 5 6 7 8 9 10 11 12 13 14 15 16 17 18 19 20 21 22 23 24 25 26 27 28 29 30 31 32 33 34 35 36 37 38 39 40 41 42 43 44 45 46 47 48 49 50
000
ASUS43 KDTX 300310
RWRMI
MICHIGAN HOURLY REGIONAL WEATHER ROUNDUP
NATIONAL WEATHER SERVICE DETROIT/PONTIAC MI
1100 PM EDT FRI MAY 29 2015

NOTE: "FAIR" INDICATES FEW OR NO CLOUDS BELOW 12,000 FEET WITH NO
SIGNIFICANT WEATHER AND/OR OBSTRUCTION TO VISIBILITY.

MIZ047>049-052>055-059>063-066>070-074>076-081>083-300400-
SOUTHEAST LOWER MICHIGAN

CITY           SKY/WX    TMP DP  RH WIND       PRES   REMARKS
ADRIAN         PTCLDY    75  66  73 S10       30.00S
ALMA           HVY RAIN  70  68  92 SW8G22    29.95R
ANN ARBOR      MOCLDY    73  66  78 S6        29.99S
BAD AXE        CLOUDY    66  64  92 SE8       29.97F
CARO           MOCLDY    67  65  96 SE5       29.96S
DETROIT CITY   PTCLDY    73  65  75 S8        30.00S
DETROIT        PTCLDY    73  66  78 S9        30.00S
FLINT          MOCLDY    69  66  90 S5        29.97R
GROSSE ILE     PTCLDY    66  63  88 S3        30.00S
HILLSDALE      PTCLDY    76  64  67 S8        30.00F
HOWELL         MOCLDY    74  64  69 SE9       29.98S

CITY           SKY/WX    TMP DP  RH WIND       PRES   REMARKS
JACKSON        PTCLDY    76  63  64 S10       29.97F
LAMBERTVILLE   PTCLDY    77  63  61 S8        30.01S
LANSING        PTCLDY    72  66  81 S10       29.95S
LAPEER         FAIR      71  65  82 SE5       29.99F
MASON          PTCLDY    72  62  72 S5        29.96F
MONROE         MOCLDY    73  66  78 S6        29.99S
MT. CLEMENS    PTCLDY    68  64  88 S10       29.99R
PONTIAC        PTCLDY    73  65  75 S8        29.99R
PORT HOPE        N/A     70  68  93 VRB7      29.95S
PORT HURON     MOCLDY    70  64  83 S7        30.00S
TRI CITIES     MOCLDY    71  67  87 SE8       29.93F
MIDLAND        MOCLDY    71  68  92 SE6       29.91F
TROY           PTCLDY    75  67  74 S7        30.02R
SAGINAW HB     CLOUDY    68  68 100 SE9       29.93F
$$
MIZ043>046-050>051-056>058-064>065-071>073-077>080-300400-
SOUTHWEST LOWER MICHIGAN

CITY           SKY/WX    TMP DP  RH WIND       PRES   REMARKS
BATTLE CREEK   PTCLDY    76  64  66 S13       29.95S
BENTON HARBOR  MOCLDY    68  66  93 S7        29.95R
BIG RAPIDS     MOCLDY    69  65  88 S5        29.91S
COLDWATER      PTCLDY    76  63  64 S7        29.98S
FREMONT        FAIR      69  68  94 S5        29.90F
HOLLAND        MOCLDY    70  65  84 S7        29.93S
GRAND RAPIDS   TSTM      71  68  90 S13       29.93S
IONIA          CLOUDY    71  68  90 CALM      29.92F
KALAMAZOO      MOCLDY    76  65  68 S7        29.95R
LUDINGTON      CLOUDY    68  65  90 SW8       29.89S
MARSHALL       PTCLDY    76  64  67 S7        29.96S
MOUNT PLEASANT HVY RAIN  70  67  90 SE9G18    29.93R
MUSKEGON       PTCLDY    68  62  81 SW12      29.91S
SOUTH HAVEN    MOCLDY    70  65  85 SW6       29.94R
$$
MIZ016>042-300400-
NORTHERN LOWER MICHIGAN

CITY           SKY/WX    TMP DP  RH WIND       PRES   REMARKS
ALPENA         CLOUDY    63  61  93 S3        29.90F
BEAVER ISLAND  CLOUDY    57  57  98 W7        29.89F FOG
BELLAIRE       HVY RAIN  68  66  92 S3        29.88S
CADILLAC       CLOUDY    67  65  94 S3        29.91F
CHARLEVOIX     LGT RAIN  59  58  96 W14       29.91F
FRANKFORT      CLOUDY    70  63  77 SW5       29.88S
GAYLORD        LGT RAIN  66  66 100 S6        29.91S FOG
GRAYLING       RAIN      65  65  97 CALM      29.92F
HARBOR SPRINGS LGT RAIN  55  55  99 SW3       29.89S VSB 1/2
HOUGHTON LAKE  CLOUDY    67  64  90 SE5       29.91F
MANISTEE       CLOUDY    66  64  94 CALM      29.89S
OSCODA         CLOUDY    69  67  96 S6        29.92F
PELLSTON       TSTM      64  62  93 NW10      29.89R
ROGERS CITY    CLOUDY    65  64  94 S7        29.89F
TRAVERSE CITY  LGT RAIN  69  66  90 CALM      29.87S
$$
MIZ007>008-015-300400-
EASTERN UPPER MICHIGAN

CITY           SKY/WX    TMP DP  RH WIND       PRES   REMARKS
KINROSS        CLOUDY    63  61  94 S6        29.88F
MACKINAC ISLAN RAIN      57  57 100 CALM      29.89S VSB 1
NEWBERRY       CLOUDY    61  61  99 NW5       29.88F FOG
S. S. MARIE    LGT RAIN  62  60  93 NE3       29.87F FOG
MUNISING         N/A     48  46  93 NW15      29.94R
$$
MIZ004>006-011>014-085-300400-
CENTRAL UPPER MICHIGAN

CITY           SKY/WX    TMP DP  RH WIND       PRES   REMARKS
MANISTIQUE     CLOUDY    61  60  96 NW9       29.88S
ESCANABA       CLOUDY    63  61  94 NE8       29.89R
MENOMINEE      CLOUDY    64  61  88 N3        29.87F
SAWYER-GWINN   RAIN      53  51  92 N16       29.95S
$$
MIZ001>003-009>011-084-300400-
WESTERN UPPER MICHIGAN

CITY           SKY/WX    TMP DP  RH WIND       PRES   REMARKS
IRON MOUNTAIN  LGT RAIN  62  59  90 N6        29.91R
HOUGHTON       CLOUDY    53  48  83 N9        29.96R
COPPER HARBOR    N/A     50  45  83 N14       29.95R
IRONWOOD       CLOUDY    54  52  94 N6        29.98R
$$

ABBREVIATIONS USED IN REMARKS
   TC - TEMPERATURE IN CELSIUS
  WCI - WIND CHILL INDEX
   HX - HEAT INDEX
  VSB - VISIBILITY



USA.gov is the U.S. government's official web portal to all federal, state and local government web resources and services.